Time,TemperatureF,DewpointF,PressureIn,WindDirection,WindDirectionDegrees,WindSpeedMPH,WindSpeedGustMPH,Humidity,HourlyPrecipIn,Conditions,Clouds,dailyrainin,SolarRadiationWatts/m^2,SoftwareType,DateUTC
2013-06-11 00:00:00,42.0,42.0,-100.00,SW,218,7.0,15.0,100,0.00,,,0.00,0.000000,,2013-06-11 07:00:00,
2013-06-11 00:22:00,42.0,42.0,-100.00,SW,218,7.0,15.0,100,0.00,,,0.00,0.000000,,2013-06-11 07:22:00,
2013-06-11 00:32:00,42.0,42.0,-100.00,SW,218,7.0,15.0,100,0.00,,,0.00,0.000000,,2013-06-11 07:32:00,
2013-06-11 00:42:00,42.0,42.0,-100.00,SW,218,7.0,15.0,100,0.00,,,0.00,0.000000,,2013-06-11 07:42:00,
2013-06-11 00:52:00,42.0,42.0,-100.00,SW,218,7.0,15.0,100,0.00,,,0.00,0.000000,,2013-06-11 07:52:00,
2013-06-11 01:00:00,42.0,42.0,-100.00,SW,220,8.0,13.0,100,0.00,,,0.00,0.000000,,2013-06-11 08:00:00,
2013-06-11 01:22:00,42.0,42.0,-100.00,SW,220,8.0,13.0,100,0.00,,,0.00,0.000000,,2013-06-11 08:22:00,
2013-06-11 01:32:00,42.0,42.0,-100.00,SW,220,8.0,13.0,100,0.00,,,0.00,0.000000,,2013-06-11 08:32:00,
2013-06-11 01:42:00,42.0,42.0,-100.00,SW,220,8.0,13.0,100,0.00,,,0.00,0.000000,,2013-06-11 08:42:00,
2013-06-11 01:52:00,42.0,42.0,-100.00,SW,220,8.0,13.0,100,0.00,,,0.00,0.000000,,2013-06-11 08:52:00,
2013-06-11 02:00:00,42.0,42.0,-100.00,SW,215,7.0,13.0,100,0.00,,,0.00,0.000000,,2013-06-11 09:00:00,
2013-06-11 02:22:00,42.0,42.0,-100.00,SW,215,7.0,13.0,100,0.00,,,0.00,0.000000,,2013-06-11 09:22:00,
2013-06-11 02:33:00,42.0,42.0,-100.00,SW,215,7.0,13.0,100,0.00,,,0.00,0.000000,,2013-06-11 09:33:00,
2013-06-11 02:43:00,42.0,42.0,-100.00,SW,215,7.0,13.0,100,0.00,,,0.00,0.000000,,2013-06-11 09:43:00,
2013-06-11 02:53:00,42.0,42.0,-100.00,SW,215,7.0,13.0,100,0.00,,,0.00,0.000000,,2013-06-11 09:53:00,
2013-06-11 03:00:00,42.0,42.0,-100.00,SW,222,7.0,12.0,100,0.00,,,0.00,0.000000,,2013-06-11 10:00:00,
2013-06-11 03:23:00,42.0,42.0,-100.00,SW,222,7.0,12.0,100,0.00,,,0.00,0.000000,,2013-06-11 10:23:00,
2013-06-11 03:33:00,42.0,42.0,-100.00,SW,222,7.0,12.0,100,0.00,,,0.00,0.000000,,2013-06-11 10:33:00,
2013-06-11 03:43:00,42.0,42.0,-100.00,SW,222,7.0,12.0,100,0.00,,,0.00,0.000000,,2013-06-11 10:43:00,
2013-06-11 03:52:00,42.0,42.0,-100.00,SW,222,7.0,12.0,100,0.00,,,0.00,0.000000,,2013-06-11 10:52:00,
2013-06-11 04:00:00,42.0,42.0,-100.00,SSW,211,7.0,14.0,100,0.00,,,-99.99,0.000000,,2013-06-11 11:00:00,
2013-06-11 04:22:00,42.0,42.0,-100.00,SSW,211,7.0,14.0,100,0.00,,,-99.99,0.000000,,2013-06-11 11:22:00,
2013-06-11 04:32:00,42.0,42.0,-100.00,SSW,211,7.0,14.0,100,0.00,,,-99.99,0.000000,,2013-06-11 11:32:00,
2013-06-11 04:42:00,42.0,42.0,-100.00,SSW,211,7.0,14.0,100,0.00,,,-99.99,0.000000,,2013-06-11 11:42:00,
2013-06-11 04:52:00,42.0,42.0,-100.00,SSW,211,7.0,14.0,100,0.00,,,-99.99,0.000000,,2013-06-11 11:52:00,
2013-06-11 05:00:00,42.0,42.0,-100.00,SSW,208,8.0,16.0,100,0.00,,,-99.99,0.000000,,2013-06-11 12:00:00,
2013-06-11 05:22:00,42.0,42.0,-100.00,SSW,208,8.0,16.0,100,0.00,,,-99.99,0.000000,,2013-06-11 12:22:00,
2013-06-11 05:32:00,42.0,42.0,-100.00,SSW,208,8.0,16.0,100,0.00,,,-99.99,0.000000,,2013-06-11 12:32:00,
2013-06-11 05:42:00,42.0,42.0,-100.00,SSW,208,8.0,16.0,100,0.00,,,-99.99,0.000000,,2013-06-11 12:42:00,
2013-06-11 05:52:00,42.0,42.0,-100.00,SSW,208,8.0,16.0,100,0.00,,,-99.99,0.000000,,2013-06-11 12:52:00,
2013-06-11 06:00:00,43.0,43.0,-100.00,SSW,209,8.0,15.0,100,0.00,,,0.00,7.000000,,2013-06-11 13:00:00,
2013-06-11 06:22:00,43.0,43.0,-100.00,SSW,209,8.0,15.0,100,0.00,,,0.00,7.000000,,2013-06-11 13:22:00,
2013-06-11 06:32:00,43.0,43.0,-100.00,SSW,209,8.0,15.0,100,0.00,,,0.00,7.000000,,2013-06-11 13:32:00,
2013-06-11 06:42:00,43.0,43.0,-100.00,SSW,209,8.0,15.0,100,0.00,,,0.00,7.000000,,2013-06-11 13:42:00,
2013-06-11 06:52:00,43.0,43.0,-100.00,SSW,209,8.0,15.0,100,0.00,,,0.00,7.000000,,2013-06-11 13:52:00,
2013-06-11 07:00:00,42.0,42.0,-100.00,SSW,213,8.0,17.0,100,0.00,,,0.00,54.000000,,2013-06-11 14:00:00,
2013-06-11 07:22:00,42.0,42.0,-100.00,SSW,213,8.0,17.0,100,0.00,,,0.00,54.000000,,2013-06-11 14:22:00,
2013-06-11 07:32:00,42.0,42.0,-100.00,SSW,213,8.0,17.0,100,0.00,,,0.00,54.000000,,2013-06-11 14:32:00,
2013-06-11 07:42:00,42.0,42.0,-100.00,SSW,213,8.0,17.0,100,0.00,,,0.00,54.000000,,2013-06-11 14:42:00,
2013-06-11 07:53:00,42.0,42.0,-100.00,SSW,213,8.0,17.0,100,0.00,,,0.00,54.000000,,2013-06-11 14:53:00,
2013-06-11 08:00:00,44.0,44.0,-100.00,SSW,210,8.0,15.0,100,0.00,,,-99.99,114.000000,,2013-06-11 15:00:00,
2013-06-11 08:22:00,44.0,44.0,-100.00,SSW,210,8.0,15.0,100,0.00,,,-99.99,114.000000,,2013-06-11 15:22:00,
2013-06-11 08:33:00,44.0,44.0,-100.00,SSW,210,8.0,15.0,100,0.00,,,-99.99,114.000000,,2013-06-11 15:33:00,
2013-06-11 08:43:00,44.0,44.0,-100.00,SSW,210,8.0,15.0,100,0.00,,,-99.99,114.000000,,2013-06-11 15:43:00,
2013-06-11 08:53:00,44.0,44.0,-100.00,SSW,210,8.0,15.0,100,0.00,,,-99.99,114.000000,,2013-06-11 15:53:00,
2013-06-11 10:00:00,46.0,46.0,-100.00,SSW,211,8.0,16.0,100,-99.99,,,0.01,196.000000,,2013-06-11 17:00:00,
2013-06-11 10:22:00,46.0,46.0,-100.00,SSW,211,8.0,16.0,100,-99.99,,,0.01,196.000000,,2013-06-11 17:22:00,
2013-06-11 10:32:00,46.0,46.0,-100.00,SSW,211,8.0,16.0,100,-99.99,,,0.01,196.000000,,2013-06-11 17:32:00,
2013-06-11 10:43:00,46.0,46.0,-100.00,SSW,211,8.0,16.0,100,-99.99,,,0.01,196.000000,,2013-06-11 17:43:00,
2013-06-11 10:52:00,46.0,46.0,-100.00,SSW,211,8.0,16.0,100,-99.99,,,0.01,196.000000,,2013-06-11 17:52:00,
2013-06-11 11:00:00,46.0,46.0,-100.00,SSW,210,10.0,20.0,100,0.00,,,0.01,244.000000,,2013-06-11 18:00:00,
2013-06-11 11:22:00,46.0,46.0,-100.00,SSW,210,10.0,20.0,100,0.00,,,0.01,244.000000,,2013-06-11 18:22:00,
2013-06-11 11:33:00,46.0,46.0,-100.00,SSW,210,10.0,20.0,100,0.00,,,0.01,244.000000,,2013-06-11 18:33:00,
2013-06-11 11:43:00,46.0,46.0,-100.00,SSW,210,10.0,20.0,100,0.00,,,0.01,244.000000,,2013-06-11 18:43:00,
2013-06-11 11:52:00,46.0,46.0,-100.00,SSW,210,10.0,20.0,100,0.00,,,0.01,244.000000,,2013-06-11 18:52:00,
2013-06-11 12:00:00,48.0,48.0,-100.00,SSW,212,8.0,16.0,100,0.01,,,0.02,293.000000,,2013-06-11 19:00:00,
2013-06-11 12:22:00,48.0,48.0,-100.00,SSW,212,8.0,16.0,100,0.01,,,0.02,293.000000,,2013-06-11 19:22:00,
2013-06-11 12:33:00,48.0,48.0,-100.00,SSW,212,8.0,16.0,100,0.01,,,0.02,293.000000,,2013-06-11 19:33:00,
2013-06-11 12:42:00,48.0,48.0,-100.00,SSW,212,8.0,16.0,100,0.01,,,0.02,293.000000,,2013-06-11 19:42:00,
2013-06-11 12:52:00,48.0,48.0,-100.00,SSW,212,8.0,16.0,100,0.01,,,0.02,293.000000,,2013-06-11 19:52:00,
2013-06-11 13:00:00,46.0,46.0,-100.00,SW,216,10.0,21.0,100,0.01,,,0.03,222.000000,,2013-06-11 20:00:00,
2013-06-11 13:22:00,46.0,46.0,-100.00,SW,216,10.0,21.0,100,0.01,,,0.03,222.000000,,2013-06-11 20:22:00,
2013-06-11 13:32:00,46.0,46.0,-100.00,SW,216,10.0,21.0,100,0.01,,,0.03,222.000000,,2013-06-11 20:32:00,
2013-06-11 13:42:00,46.0,46.0,-100.00,SW,216,10.0,21.0,100,0.01,,,0.03,222.000000,,2013-06-11 20:42:00,
2013-06-11 13:52:00,46.0,46.0,-100.00,SW,216,10.0,21.0,100,0.01,,,0.03,222.000000,,2013-06-11 20:52:00,
2013-06-11 14:00:00,44.0,44.0,-100.00,SW,217,12.0,22.0,100,0.02,,,0.05,234.000000,,2013-06-11 21:00:00,
2013-06-11 14:22:00,44.0,44.0,-100.00,SW,217,12.0,22.0,100,0.02,,,0.05,234.000000,,2013-06-11 21:22:00,
2013-06-11 14:33:00,44.0,44.0,-100.00,SW,217,12.0,22.0,100,0.02,,,0.05,234.000000,,2013-06-11 21:33:00,
2013-06-11 14:42:00,44.0,44.0,-100.00,SW,217,12.0,22.0,100,0.02,,,0.05,234.000000,,2013-06-11 21:42:00,
2013-06-11 14:53:00,44.0,44.0,-100.00,SW,217,12.0,22.0,100,0.02,,,0.05,234.000000,,2013-06-11 21:53:00,
2013-06-11 15:00:00,49.0,49.0,-100.00,SSW,212,11.0,20.0,100,0.00,,,0.05,340.000000,,2013-06-11 22:00:00,
2013-06-11 15:22:00,49.0,49.0,-100.00,SSW,212,11.0,20.0,100,0.00,,,0.05,340.000000,,2013-06-11 22:22:00,
2013-06-11 15:33:00,49.0,49.0,-100.00,SSW,212,11.0,20.0,100,0.00,,,0.05,340.000000,,2013-06-11 22:33:00,
2013-06-11 15:42:00,49.0,49.0,-100.00,SSW,212,11.0,20.0,100,0.00,,,0.05,340.000000,,2013-06-11 22:42:00,
2013-06-11 15:52:00,49.0,49.0,-100.00,SSW,212,11.0,20.0,100,0.00,,,0.05,340.000000,,2013-06-11 22:52:00,
2013-06-11 16:00:00,51.0,49.0,-100.00,SSW,212,12.0,22.0,94,0.00,,,0.05,430.000000,,2013-06-11 23:00:00,
2013-06-11 16:22:00,51.0,49.0,-100.00,SSW,212,12.0,22.0,94,0.00,,,0.05,430.000000,,2013-06-11 23:22:00,
2013-06-11 16:32:00,51.0,49.0,-100.00,SSW,212,12.0,22.0,94,0.00,,,0.05,430.000000,,2013-06-11 23:32:00,
2013-06-11 16:42:00,51.0,49.0,-100.00,SSW,212,12.0,22.0,94,0.00,,,0.05,430.000000,,2013-06-11 23:42:00,
2013-06-11 16:52:00,51.0,49.0,-100.00,SSW,212,12.0,22.0,94,0.00,,,0.05,430.000000,,2013-06-11 23:52:00,
2013-06-11 17:00:00,48.0,45.0,-100.00,SSW,211,13.0,25.0,91,0.00,,,0.05,364.000000,,2013-06-12 00:00:00,
2013-06-11 17:22:00,48.0,45.0,-100.00,SSW,211,13.0,25.0,91,0.00,,,0.05,364.000000,,2013-06-12 00:22:00,
2013-06-11 17:32:00,48.0,45.0,-100.00,SSW,211,13.0,25.0,91,0.00,,,0.05,364.000000,,2013-06-12 00:32:00,
2013-06-11 17:42:00,48.0,45.0,-100.00,SSW,211,13.0,25.0,91,0.00,,,0.05,364.000000,,2013-06-12 00:42:00,
2013-06-11 17:52:00,48.0,45.0,-100.00,SSW,211,13.0,25.0,91,0.00,,,0.05,364.000000,,2013-06-12 00:52:00,
2013-06-11 18:00:00,45.0,45.0,-100.00,SSW,210,13.0,26.0,100,0.00,,,0.05,161.000000,,2013-06-12 01:00:00,
2013-06-11 18:22:00,45.0,45.0,-100.00,SSW,210,13.0,26.0,100,0.00,,,0.05,161.000000,,2013-06-12 01:22:00,
2013-06-11 18:32:00,45.0,45.0,-100.00,SSW,210,13.0,26.0,100,0.00,,,0.05,161.000000,,2013-06-12 01:32:00,
2013-06-11 18:42:00,45.0,45.0,-100.00,SSW,210,13.0,26.0,100,0.00,,,0.05,161.000000,,2013-06-12 01:42:00,
2013-06-11 18:52:00,45.0,45.0,-100.00,SSW,210,13.0,26.0,100,0.00,,,0.05,161.000000,,2013-06-12 01:52:00,
2013-06-11 19:22:00,45.0,45.0,-100.00,SSW,209,14.0,25.0,100,0.00,,,0.05,40.000000,,2013-06-12 02:22:00,
2013-06-11 19:32:00,45.0,45.0,-100.00,SSW,209,14.0,25.0,100,0.00,,,0.05,40.000000,,2013-06-12 02:32:00,
2013-06-11 19:42:00,45.0,45.0,-100.00,SSW,209,14.0,25.0,100,0.00,,,0.05,40.000000,,2013-06-12 02:42:00,
2013-06-11 19:52:00,45.0,45.0,-100.00,SSW,209,14.0,25.0,100,0.00,,,0.05,40.000000,,2013-06-12 02:52:00,
2013-06-11 20:00:00,43.0,43.0,-100.00,SSW,209,13.0,26.0,100,0.01,,,0.06,21.000000,,2013-06-12 03:00:00,
2013-06-11 20:22:00,43.0,43.0,-100.00,SSW,209,13.0,26.0,100,0.01,,,0.06,21.000000,,2013-06-12 03:22:00,
2013-06-11 20:33:00,43.0,43.0,-100.00,SSW,209,13.0,26.0,100,0.01,,,0.06,21.000000,,2013-06-12 03:33:00,
2013-06-11 20:43:00,43.0,43.0,-100.00,SSW,209,13.0,26.0,100,0.01,,,0.06,21.000000,,2013-06-12 03:43:00,
2013-06-11 20:53:00,43.0,43.0,-100.00,SSW,209,13.0,26.0,100,0.01,,,0.06,21.000000,,2013-06-12 03:53:00,
2013-06-11 21:00:00,43.0,43.0,-100.00,SSW,205,11.0,23.0,100,0.06,,,0.12,10.000000,,2013-06-12 04:00:00,
2013-06-11 21:23:00,43.0,43.0,-100.00,SSW,205,11.0,23.0,100,0.06,,,0.12,10.000000,,2013-06-12 04:23:00,
2013-06-11 21:34:00,43.0,43.0,-100.00,SSW,205,11.0,23.0,100,0.06,,,0.12,10.000000,,2013-06-12 04:34:00,
2013-06-11 21:42:00,43.0,43.0,-100.00,SSW,205,11.0,23.0,100,0.06,,,0.12,10.000000,,2013-06-12 04:42:00,
2013-06-11 21:52:00,43.0,43.0,-100.00,SSW,205,11.0,23.0,100,0.06,,,0.12,10.000000,,2013-06-12 04:52:00,
2013-06-11 22:00:00,44.0,44.0,-100.00,SSW,213,10.0,18.0,100,0.04,,,0.16,0.000000,,2013-06-12 05:00:00,
2013-06-11 22:22:00,44.0,44.0,-100.00,SSW,213,10.0,18.0,100,0.04,,,0.16,0.000000,,2013-06-12 05:22:00,
2013-06-11 22:32:00,44.0,44.0,-100.00,SSW,213,10.0,18.0,100,0.04,,,0.16,0.000000,,2013-06-12 05:32:00,
2013-06-11 22:42:00,44.0,44.0,-100.00,SSW,213,10.0,18.0,100,0.04,,,0.16,0.000000,,2013-06-12 05:42:00,
2013-06-11 22:52:00,44.0,44.0,-100.00,SSW,213,10.0,18.0,100,0.04,,,0.16,0.000000,,2013-06-12 05:52:00,
2013-06-11 23:00:00,42.0,42.0,-100.00,SSW,213,9.0,18.0,100,0.01,,,0.17,0.000000,,2013-06-12 06:00:00,
2013-06-11 23:22:00,42.0,42.0,-100.00,SSW,213,9.0,18.0,100,0.01,,,0.17,0.000000,,2013-06-12 06:22:00,
2013-06-11 23:32:00,42.0,42.0,-100.00,SSW,213,9.0,18.0,100,0.01,,,0.17,0.000000,,2013-06-12 06:32:00,
2013-06-11 23:42:00,42.0,42.0,-100.00,SSW,213,9.0,18.0,100,0.01,,,0.17,0.000000,,2013-06-12 06:42:00,
2013-06-11 23:52:00,42.0,42.0,-100.00,SSW,213,9.0,18.0,100,0.01,,,0.17,0.000000,,2013-06-12 06:52:00,